| time (UTC) | temp F | wind direction | speed MPH | gust MPH | rain 1hr in | rain 24hr in | rain mn in | humidity % | barometer mb |
| 20260503040510 | 52 | 95 | 9.0 | 9.0 | 0.00 | 0.00 | 0.00 | 46 | |
| 20260503040010 | 52 | 93 | 9.0 | 11.0 | 0.00 | 0.00 | 0.00 | 47 | |
| 20260503035509 | 52 | 94 | 11.0 | 11.0 | 0.00 | 0.00 | 0.00 | 47 | |
| 20260503035010 | 52 | 92 | 11.0 | 13.0 | 0.00 | 0.00 | 0.00 | 46 | |
| 20260503034510 | 52 | 96 | 13.0 | 13.0 | 0.00 | 0.00 | 0.00 | 46 | |
| 20260503034010 | 52 | 97 | 13.0 | 13.0 | 0.00 | 0.00 | 0.00 | 46 | |
| 20260503033509 | 52 | 96 | 13.0 | 13.0 | 0.00 | 0.00 | 0.00 | 45 | |
| 20260503033004 | 52 | 98 | 13.0 | 13.0 | 0.00 | 0.00 | 0.00 | 45 | |
| 20260503032510 | 52 | 99 | 11.0 | 13.0 | 0.00 | 0.00 | 0.00 | 45 | |
| 20260503032011 | 52 | 99 | 13.0 | 13.0 | 0.00 | 0.00 | 0.00 | 44 | |
| 20260503031511 | 52 | 97 | 11.0 | 13.0 | 0.00 | 0.00 | 0.00 | 43 | |
| 20260503031010 | 54 | 100 | 11.0 | 11.0 | 0.00 | 0.00 | 0.00 | 43 | |
| 20260503030510 | 54 | 101 | 9.0 | 11.0 | 0.00 | 0.00 | 0.00 | 42 | |
| 20260503030010 | 54 | 105 | 7.0 | 9.0 | 0.00 | 0.00 | 0.00 | 40 | |
| 20260503025511 | 55 | 101 | 7.0 | 7.0 | 0.00 | 0.00 | 0.00 | 39 | |
| 20260503025010 | 57 | 71 | 2.0 | 2.0 | 0.00 | 0.00 | 0.00 | 39 | |
| 20260503024510 | 54 | 94 | 4.0 | 7.0 | 0.00 | 0.00 | 0.00 | 40 | |
| 20260503024010 | 55 | 107 | 4.0 | 4.0 | 0.00 | 0.00 | 0.00 | 39 | |
| 20260503023510 | 55 | 107 | 7.0 | 7.0 | 0.00 | 0.00 | 0.00 | 39 | |
| 20260503023010 | 54 | 115 | 7.0 | 7.0 | 0.00 | 0.00 | 0.00 | 40 | |
| 20260503022509 | 54 | 106 | 4.0 | 7.0 | 0.00 | 0.00 | 0.00 | 40 | |
| 20260503022011 | 55 | 103 | 4.0 | 7.0 | 0.00 | 0.00 | 0.00 | 37 | |
| 20260503021510 | 57 | 108 | 7.0 | 7.0 | 0.00 | 0.00 | 0.00 | 36 | |
| 20260503021011 | 59 | 117 | 4.0 | 7.0 | 0.00 | 0.00 | 0.00 | 35 | |
| 20260503020510 | 59 | 107 | 4.0 | 4.0 | 0.00 | 0.00 | 0.00 | 35 | |
| 20260503020011 | 59 | 98 | 4.0 | 4.0 | 0.00 | 0.00 | 0.00 | 35 | |
| 20260503015510 | 59 | 95 | 4.0 | 4.0 | 0.00 | 0.00 | 0.00 | 35 | |
| 20260503015011 | 57 | 98 | 4.0 | 7.0 | 0.00 | 0.00 | 0.00 | 36 | |
| 20260503014510 | 59 | 100 | 4.0 | 7.0 | 0.00 | 0.00 | 0.00 | 35 | |
| 20260503014010 | 57 | 97 | 4.0 | 7.0 | 0.00 | 0.00 | 0.00 | 36 | |
| 20260503013510 | 59 | 102 | 4.0 | 7.0 | 0.00 | 0.00 | 0.00 | 35 | |
| 20260503013010 | 59 | 98 | 4.0 | 7.0 | 0.00 | 0.00 | 0.00 | 35 | |
| 20260503012503 | 59 | 104 | 4.0 | 4.0 | 0.00 | 0.00 | 0.00 | 34 | |
| 20260503012011 | 61 | 98 | 4.0 | 7.0 | 0.00 | 0.00 | 0.00 | 34 | |
| 20260503011511 | 59 | 91 | 4.0 | 7.0 | 0.00 | 0.00 | 0.00 | 35 | |
| 20260503011004 | 59 | 93 | 7.0 | 7.0 | 0.00 | 0.00 | 0.00 | 35 | |
| 20260503010510 | 57 | 90 | 7.0 | 9.0 | 0.00 | 0.00 | 0.00 | 35 | |
| 20260503010004 | 59 | 85 | 9.0 | 9.0 | 0.00 | 0.00 | 0.00 | 35 | |
| 20260503005510 | 59 | 87 | 9.0 | 9.0 | 0.00 | 0.00 | 0.00 | 35 | |
| 20260503005011 | 59 | 89 | 7.0 | 9.0 | 0.00 | 0.00 | 0.00 | 35 | |
| 20260503004510 | 57 | 93 | 9.0 | 9.0 | 0.00 | 0.00 | 0.00 | 36 | |
| 20260503004009 | 59 | 94 | 11.0 | 11.0 | 0.00 | 0.00 | 0.00 | 35 | |
| 20260503003510 | 59 | 92 | 13.0 | 13.0 | 0.00 | 0.00 | 0.00 | 35 | |
| 20260503003011 | 57 | 93 | 11.0 | 13.0 | 0.00 | 0.00 | 0.00 | 35 | |
| 20260503002509 | 57 | 99 | 9.0 | 13.0 | 0.00 | 0.00 | 0.00 | 35 | |
| 20260503002010 | 59 | 96 | 11.0 | 13.0 | 0.00 | 0.00 | 0.00 | 35 | |
| 20260503001511 | 59 | 91 | 11.0 | 13.0 | 0.00 | 0.00 | 0.00 | 34 | |
| 20260503001011 | 59 | 91 | 11.0 | 11.0 | 0.00 | 0.00 | 0.00 | 34 | |
| 20260503000510 | 59 | 89 | 11.0 | 13.0 | 0.00 | 0.00 | 0.00 | 34 | |
| 20260503000010 | 59 | 91 | 11.0 | 13.0 | 0.00 | 0.00 | 0.00 | 34 | |
| 20260502235510 | 59 | 91 | 9.0 | 11.0 | 0.00 | 0.00 | 0.00 | 34 | |
| 20260502235010 | 59 | 89 | 11.0 | 11.0 | 0.00 | 0.00 | 0.00 | 34 | |
| 20260502234010 | 59 | 92 | 11.0 | 11.0 | 0.00 | 0.00 | 0.00 | 33 | |
| 20260502233511 | 61 | 91 | 9.0 | 11.0 | 0.00 | 0.00 | 0.00 | 33 | |
| 20260502233010 | 61 | 92 | 7.0 | 9.0 | 0.00 | 0.00 | 0.00 | 32 | |
| 20260502232509 | 61 | 90 | 9.0 | 9.0 | 0.00 | 0.00 | 0.00 | 32 | |
| 20260502232011 | 61 | 84 | 7.0 | 9.0 | 0.00 | 0.00 | 0.00 | 32 | |
| 20260502231511 | 61 | 86 | 9.0 | 9.0 | 0.00 | 0.00 | 0.00 | 32 | |
| 20260502231009 | 61 | 90 | 9.0 | 11.0 | 0.00 | 0.00 | 0.00 | 32 | |
| 20260502230511 | 61 | 93 | 11.0 | 11.0 | 0.00 | 0.00 | 0.00 | 32 | |
| 20260502230004 | 61 | 99 | 9.0 | 9.0 | 0.00 | 0.00 | 0.00 | 32 | |
| 20260502225509 | 61 | 98 | 9.0 | 11.0 | 0.00 | 0.00 | 0.00 | 32 | |
| 20260502225011 | 61 | 96 | 9.0 | 9.0 | 0.00 | 0.00 | 0.00 | 31 | |
| 20260502224510 | 63 | 96 | 9.0 | 9.0 | 0.00 | 0.00 | 0.00 | 31 | |
| 20260502224003 | 63 | 110 | 9.0 | 9.0 | 0.00 | 0.00 | 0.00 | 31 | |
| 20260502223511 | 63 | 99 | 9.0 | 11.0 | 0.00 | 0.00 | 0.00 | 31 | |
| 20260502223011 | 63 | 107 | 11.0 | 11.0 | 0.00 | 0.00 | 0.00 | 31 | |
| 20260502222510 | 63 | 103 | 11.0 | 11.0 | 0.00 | 0.00 | 0.00 | 31 | |
| 20260502222010 | 63 | 102 | 11.0 | 11.0 | 0.00 | 0.00 | 0.00 | 31 | |
| 20260502221511 | 63 | 102 | 13.0 | 13.0 | 0.00 | 0.00 | 0.00 | 31 | |
| 20260502221010 | 63 | 100 | 13.0 | 16.0 | 0.00 | 0.00 | 0.00 | 31 | |
| 20260502220511 | 63 | 94 | 13.0 | 13.0 | 0.00 | 0.00 | 0.00 | 30 | |
| 20260502220011 | 63 | 92 | 11.0 | 13.0 | 0.00 | 0.00 | 0.00 | 31 | |
| 20260502215510 | 63 | 93 | 13.0 | 16.0 | 0.00 | 0.00 | 0.00 | 31 | |
| 20260502215010 | 63 | 96 | 13.0 | 16.0 | 0.00 | 0.00 | 0.00 | 30 | |
| 20260502214511 | 63 | 100 | 11.0 | 13.0 | 0.00 | 0.00 | 0.00 | 30 | |
| 20260502214009 | 63 | 97 | 11.0 | 13.0 | 0.00 | 0.00 | 0.00 | 30 | |
| 20260502213510 | 63 | 104 | 11.0 | 13.0 | 0.00 | 0.00 | 0.00 | 30 | |
| 20260502213010 | 63 | 104 | 13.0 | 13.0 | 0.00 | 0.00 | 0.00 | 30 | |
| 20260502212510 | 64 | 105 | 13.0 | 16.0 | 0.00 | 0.00 | 0.00 | 30 | |
| 20260502212010 | 64 | 101 | 13.0 | 16.0 | 0.00 | 0.00 | 0.00 | 29 | |
| 20260502211509 | 64 | 106 | 16.0 | 16.0 | 0.00 | 0.00 | 0.00 | 29 | |
| 20260502211011 | 64 | 101 | 16.0 | 16.0 | 0.00 | 0.00 | 0.00 | 29 | |
| 20260502210510 | 64 | 99 | 16.0 | 18.0 | 0.00 | 0.00 | 0.00 | 29 | |
| 20260502210011 | 64 | 101 | 16.0 | 18.0 | 0.00 | 0.00 | 0.00 | 29 | |
| 20260502205510 | 64 | 105 | 16.0 | 18.0 | 0.00 | 0.00 | 0.00 | 29 | |
| 20260502205011 | 64 | 104 | 16.0 | 18.0 | 0.00 | 0.00 | 0.00 | 29 | |
| 20260502204010 | 64 | 98 | 16.0 | 18.0 | 0.00 | 0.00 | 0.00 | 29 | |
| 20260502203511 | 64 | 95 | 16.0 | 18.0 | 0.00 | 0.00 | 0.00 | 29 | |
| 20260502203011 | 64 | 98 | 16.0 | 18.0 | 0.00 | 0.00 | 0.00 | 28 | |
| 20260502202509 | 64 | 98 | 16.0 | 20.0 | 0.00 | 0.00 | 0.00 | 28 | |
| 20260502202011 | 64 | 93 | 16.0 | 18.0 | 0.00 | 0.00 | 0.00 | 28 | |
| 20260502201511 | 64 | 96 | 16.0 | 18.0 | 0.00 | 0.00 | 0.00 | 28 | |
| 20260502201009 | 64 | 88 | 16.0 | 18.0 | 0.00 | 0.00 | 0.00 | 28 | |
| 20260502200509 | 64 | 91 | 16.0 | 18.0 | 0.00 | 0.00 | 0.00 | 28 | |
| 20260502200010 | 64 | 87 | 16.0 | 18.0 | 0.00 | 0.00 | 0.00 | 28 | |
| 20260502195510 | 64 | 85 | 16.0 | 18.0 | 0.00 | 0.00 | 0.00 | 28 | |
| 20260502195009 | 64 | 89 | 13.0 | 16.0 | 0.00 | 0.00 | 0.00 | 28 | |
| 20260502194511 | 66 | 87 | 16.0 | 20.0 | 0.00 | 0.00 | 0.00 | 28 | |
| 20260502194010 | 66 | 86 | 16.0 | 18.0 | 0.00 | 0.00 | 0.00 | 28 | |
| 20260502193510 | 66 | 89 | 16.0 | 20.0 | 0.00 | 0.00 | 0.00 | 28 | |
| 20260502193010 | 66 | 90 | 16.0 | 20.0 | 0.00 | 0.00 | 0.00 | 28 | |
| 20260502192511 | 66 | 88 | 16.0 | 18.0 | 0.00 | 0.00 | 0.00 | 28 | |
| 20260502192010 | 66 | 90 | 16.0 | 20.0 | 0.00 | 0.00 | 0.00 | 28 | |
| 20260502191511 | 66 | 90 | 13.0 | 16.0 | 0.00 | 0.00 | 0.00 | 28 | |
| 20260502191010 | 66 | 94 | 16.0 | 18.0 | 0.00 | 0.00 | 0.00 | 28 | |
| 20260502190510 | 66 | 91 | 16.0 | 18.0 | 0.00 | 0.00 | 0.00 | 28 | |
| 20260502190012 | 66 | 89 | 16.0 | 18.0 | 0.00 | 0.00 | 0.00 | 28 | |
| 20260502185011 | 66 | 89 | 18.0 | 20.0 | 0.00 | 0.00 | 0.00 | 28 | |
| 20260502184510 | 66 | 91 | 18.0 | 20.0 | 0.00 | 0.00 | 0.00 | 28 | |
| 20260502184009 | 66 | 90 | 18.0 | 20.0 | 0.00 | 0.00 | 0.00 | 28 | |
| 20260502183510 | 66 | 85 | 18.0 | 20.0 | 0.00 | 0.00 | 0.00 | 28 | |
| 20260502183010 | 66 | 88 | 16.0 | 18.0 | 0.00 | 0.00 | 0.00 | 28 | |
| 20260502182503 | 66 | 86 | 16.0 | 16.0 | 0.00 | 0.00 | 0.00 | 29 | |
| 20260502182011 | 66 | 86 | 13.0 | 16.0 | 0.00 | 0.00 | 0.00 | 29 | |
| 20260502181510 | 66 | 85 | 13.0 | 16.0 | 0.00 | 0.00 | 0.00 | 29 | |
| 20260502181010 | 66 | 89 | 16.0 | 18.0 | 0.00 | 0.00 | 0.00 | 29 | |
| 20260502180510 | 66 | 87 | 18.0 | 20.0 | 0.00 | 0.00 | 0.00 | 29 | |
| 20260502170511 | 70 | 81 | 16.0 | 18.0 | 0.00 | 0.00 | 0.00 | 28 | |
| 20260502164010 | 70 | 81 | 13.0 | 18.0 | 0.00 | 0.00 | 0.00 | 29 | |
| 20260502163510 | 70 | 91 | 9.0 | 11.0 | 0.00 | 0.00 | 0.00 | 29 | |
| 20260502163011 | 70 | 81 | 9.0 | 13.0 | 0.00 | 0.00 | 0.00 | 28 | |
| 20260502162509 | 70 | 78 | 11.0 | 13.0 | 0.00 | 0.00 | 0.00 | 28 | |
| 20260502162010 | 70 | 89 | 9.0 | 11.0 | 0.00 | 0.00 | 0.00 | 28 | |
| 20260502161511 | 70 | 67 | 9.0 | 11.0 | 0.00 | 0.00 | 0.00 | 28 | |
| 20260502161009 | 72 | 103 | 9.0 | 11.0 | 0.00 | 0.00 | 0.00 | 27 | |
| 20260502160511 | 70 | 90 | 13.0 | 16.0 | 0.00 | 0.00 | 0.00 | 27 | |
| 20260502152011 | 70 | 88 | 7.0 | 9.0 | 0.00 | 0.00 | 0.00 | 26 | |
| 20260502151510 | 70 | 77 | 4.0 | 9.0 | 0.00 | 0.00 | 0.00 | 26 | |
| 20260502151010 | 72 | 83 | 4.0 | 4.0 | 0.00 | 0.00 | 0.00 | 26 | |
| 20260502150510 | 72 | 107 | 4.0 | 7.0 | 0.00 | 0.00 | 0.00 | 26 | |
| 20260502130511 | 70 | 91 | 4.0 | 7.0 | 0.00 | 0.00 | 0.00 | 30 | |
| 20260502123510 | 70 | 97 | 7.0 | 9.0 | 0.00 | 0.00 | 0.00 | 31 | |
| 20260502123011 | 70 | 108 | 7.0 | 9.0 | 0.00 | 0.00 | 0.00 | 31 | |
| 20260502122510 | 72 | 92 | 4.0 | 7.0 | 0.00 | 0.00 | 0.00 | 31 | |
| 20260502122013 | 70 | 95 | 2.0 | 4.0 | 0.00 | 0.00 | 0.00 | 32 | |
| 20260502121511 | 70 | 81 | 4.0 | 9.0 | 0.00 | 0.00 | 0.00 | 32 | |
| 20260502121011 | 68 | 89 | 4.0 | 7.0 | 0.00 | 0.00 | 0.00 | 34 | |
| 20260502120511 | 68 | 104 | 11.0 | 13.0 | 0.00 | 0.00 | 0.00 | 33 | |
| 20260502115510 | 70 | 111 | 7.0 | 9.0 | 0.00 | 0.00 | 0.00 | 32 | |
| 20260502115011 | 70 | 138 | 0.0 | 2.0 | 0.00 | 0.00 | 0.00 | 33 | |
| 20260502114511 | 68 | 91 | 9.0 | 11.0 | 0.00 | 0.00 | 0.00 | 34 | |
| 20260502114010 | 68 | 76 | 7.0 | 9.0 | 0.00 | 0.00 | 0.00 | 34 | |
| 20260502113510 | 70 | 97 | 9.0 | 11.0 | 0.00 | 0.00 | 0.00 | 33 | |
| 20260502113011 | 68 | 106 | 7.0 | 9.0 | 0.00 | 0.00 | 0.00 | 34 | |
| 20260502112510 | 68 | 124 | 9.0 | 11.0 | 0.00 | 0.00 | 0.00 | 34 | |
| 20260502112012 | 68 | 71 | 0.0 | 2.0 | 0.00 | 0.00 | 0.00 | 35 | |
| 20260502111511 | 68 | 44 | 4.0 | 7.0 | 0.00 | 0.00 | 0.00 | 34 | |
| 20260502111010 | 68 | 102 | 7.0 | 9.0 | 0.00 | 0.00 | 0.00 | 33 | |
| 20260502110511 | 68 | 128 | 0.0 | 2.0 | 0.00 | 0.00 | 0.00 | 35 | |
| 20260502110011 | 66 | 85 | 4.0 | 7.0 | 0.00 | 0.00 | 0.00 | 36 | |
| 20260502105510 | 68 | 82 | 7.0 | 9.0 | 0.00 | 0.00 | 0.00 | 35 | |
| 20260502105010 | 68 | 85 | 9.0 | 9.0 | 0.00 | 0.00 | 0.00 | 35 | |
| 20260502104510 | 68 | 97 | 7.0 | 9.0 | 0.00 | 0.00 | 0.00 | 36 | |
| 20260502104010 | 66 | 150 | 2.0 | 7.0 | 0.00 | 0.00 | 0.00 | 37 | |
| 20260502103510 | 66 | 113 | 4.0 | 7.0 | 0.00 | 0.00 | 0.00 | 37 | |
| 20260502103011 | 66 | 111 | 7.0 | 13.0 | 0.00 | 0.00 | 0.00 | 37 | |
| 20260502102511 | 66 | 114 | 4.0 | 4.0 | 0.00 | 0.00 | 0.00 | 38 | |
| 20260502102013 | 66 | 92 | 7.0 | 9.0 | 0.00 | 0.00 | 0.00 | 38 | |
| 20260502101511 | 66 | 74 | 7.0 | 9.0 | 0.00 | 0.00 | 0.00 | 37 | |
| 20260502101010 | 66 | 117 | 9.0 | 11.0 | 0.00 | 0.00 | 0.00 | 37 | |
| 20260502100510 | 68 | 82 | 4.0 | 9.0 | 0.00 | 0.00 | 0.00 | 37 | |
| 20260502091510 | 64 | 107 | 9.0 | 9.0 | 0.00 | 0.00 | 0.00 | 42 | |
| 20260502091011 | 64 | 116 | 7.0 | 9.0 | 0.00 | 0.00 | 0.00 | 42 | |
| 20260502090510 | 63 | 111 | 4.0 | 11.0 | 0.00 | 0.00 | 0.00 | 44 | |
| 20260502071510 | 57 | 95 | 7.0 | 7.0 | 0.00 | 0.00 | 0.00 | 46 | |
| 20260502071010 | 57 | 85 | 4.0 | 7.0 | 0.00 | 0.00 | 0.00 | 47 | |
| 20260502070510 | 57 | 125 | 4.0 | 7.0 | 0.00 | 0.00 | 0.00 | 47 | |
| 20260502070010 | 57 | 104 | 4.0 | 7.0 | 0.00 | 0.00 | 0.00 | 47 | |
| 20260502065511 | 57 | 118 | 4.0 | 4.0 | 0.00 | 0.00 | 0.00 | 48 | |
| 20260502065010 | 57 | 109 | 2.0 | 4.0 | 0.00 | 0.00 | 0.00 | 48 | |
| 20260502064510 | 57 | 97 | 4.0 | 4.0 | 0.00 | 0.00 | 0.00 | 46 | |
| 20260502064010 | 55 | 96 | 4.0 | 4.0 | 0.00 | 0.00 | 0.00 | 46 | |
| 20260502063511 | 57 | 98 | 4.0 | 7.0 | 0.00 | 0.00 | 0.00 | 47 | |
| 20260502063010 | 55 | 93 | 4.0 | 4.0 | 0.00 | 0.00 | 0.00 | 46 | |
| 20260502062510 | 55 | 106 | 4.0 | 4.0 | 0.00 | 0.00 | 0.00 | 47 | |
| 20260502062014 | 55 | 115 | 4.0 | 4.0 | 0.00 | 0.00 | 0.00 | 46 | |
| 20260502061510 | 55 | 105 | 2.0 | 4.0 | 0.00 | 0.00 | 0.00 | 46 | |
| 20260502061010 | 55 | 103 | 4.0 | 4.0 | 0.00 | 0.00 | 0.00 | 46 | |
| 20260502060511 | 55 | 100 | 2.0 | 4.0 | 0.00 | 0.00 | 0.00 | 46 | |
| 20260502060010 | 55 | 96 | 2.0 | 2.0 | 0.00 | 0.00 | 0.00 | 45 | |
| 20260502055510 | 55 | 104 | 4.0 | 4.0 | 0.00 | 0.00 | 0.00 | 44 | |
| 20260502055011 | 55 | 111 | 4.0 | 4.0 | 0.00 | 0.00 | 0.00 | 43 | |
| 20260502054511 | 55 | 100 | 4.0 | 7.0 | 0.00 | 0.00 | 0.00 | 43 | |
| 20260502054010 | 55 | 95 | 4.0 | 4.0 | 0.00 | 0.00 | 0.00 | 43 | |
| 20260502053511 | 57 | 90 | 4.0 | 4.0 | 0.00 | 0.00 | 0.00 | 43 | |
| 20260502053010 | 57 | 101 | 2.0 | 4.0 | 0.00 | 0.00 | 0.00 | 43 | |
| 20260502052510 | 57 | 94 | 2.0 | 4.0 | 0.00 | 0.00 | 0.00 | 42 | |
| 20260502052014 | 59 | 96 | 2.0 | 2.0 | 0.00 | 0.00 | 0.00 | 42 | |
| 20260502051509 | 57 | 96 | 0.0 | 2.0 | 0.00 | 0.00 | 0.00 | 42 | |
| 20260502051010 | 59 | 247 | 2.0 | 2.0 | 0.00 | 0.00 | 0.00 | 41 | |
| 20260502050511 | 59 | 247 | 0.0 | 0.0 | 0.00 | 0.00 | 0.00 | 41 | |
| 20260502050011 | 59 | 248 | 0.0 | 2.0 | 0.00 | 0.00 | 0.00 | 41 | |
| 20260502044510 | 59 | 248 | 0.0 | 0.0 | 0.00 | 0.00 | 0.00 | 41 | |
| 20260502044016 | 59 | 248 | 0.0 | 2.0 | 0.00 | 0.00 | 0.00 | 41 | |
| 20260502042014 | 59 | 248 | 0.0 | 0.0 | 0.00 | 0.00 | 0.00 | 41 | |
| 20260502041510 | 59 | 248 | 0.0 | 0.0 | 0.00 | 0.00 | 0.00 | 42 |